Regional Weather Roundup
Issued by NWS Pendleton, OR

Home | Current Version | Previous Version | Text Only | Print | Product List | Glossary On
Versions: 1 2 3 4 5 6 7 8 9 10 11 12 13 14 15 16 17 18 19 20 21 22 23 24 25 26 27 28 29 30 31 32 33 34 35 36 37 38 39 40 41 42 43 44 45 46 47 48 49 50
000
ASUS46 KPDT 190925
RWRPDT
PENDLETON REGIONAL WEATHER ROUNDUP
NATIONAL WEATHER SERVICE PENDLETON OREGON
100 AM PST FRI JAN 19 2018

NOTE: FAIR INDICATES FEW OR NO CLOUDS BELOW 12,000 FEET WITH NO
SIGNIFICANT WEATHER AND/OR OBSTRUCTIONS TO VISIBILITY.

# INDICATES UNOFFICIAL STATION AND DATA

WAZ520-191010-
EAST SLOPES OF WASHINGTON CASCADES

CITY            SKY/WX      TMP DP  RH  WIND    PRES   REMARKS
#BULLFROG       N/A         30  30  100 CALM    N/A
#CLE ELUM HS    N/A         29  28  96  CALM    29.75S
#EASTON DOT     N/A         29  29  100 N1      N/A
#ELK HTS DOT    N/A         30  30  100 SW1     N/A
#GLENWOOD       N/A         29  28  96  CALM    29.85S
#NELSON 3SW     N/A         29  28  96  CALM    30.04R
#NILE           N/A         28  27  96  CALM    29.11R
#TEANAWAY 4NE   N/A         31  31  100 CALM    N/A
#TROUT LAKE 1NE N/A         33  32  96  CALM    29.86F
#TROUT LAKE 1E  N/A         32  31  96  CALM    29.85S
$$

WAZ521-191010-
SIMCOE HIGHLANDS

CITY            SKY/WX      TMP DP  RH  WIND    PRES   REMARKS
#BICKLETON HS   N/A         29  26  88  W6      29.43S
#CENTERVILLE 1SWN/A         30  27  88  CALM    29.84S
#GOLDENDALE 1NE N/A         34  27  75  SW2     N/A
#GOLDENDALE 4W  N/A         31  28  88  SW5     29.87S
#GOODNOE HILLS  N/A         36  31  82  W8      29.75R
#LYLE 6NE       N/A         33  32  96  CALM    29.88S
#PITT 4SE       N/A         31  30  96  CALM    29.89S
$$

WAZ026-191010-
KITTITAS VALLEY

CITY            SKY/WX      TMP DP  RH  WIND    PRES   REMARKS
ELLENSBURG AP   PTCLDY      29  27  92  CALM    29.77F
#ELLENSBURG CWU N/A         32  30  92  W1      29.76S
#ELLENSBURG 3NE N/A         32  30  92  CALM    27.86F
#ELLENSBURG 1E  N/A         29  28  96  CALM    29.87S
#KITTITAS 3S    N/A         26  24  92  NE1     29.81S
#MANASTASH RDG  N/A         33  32  96  CALM    N/A
#ROCKY CYN DOT  N/A         30  30  100 W7      N/A
#RYEGRASS DOT   N/A         30  29  96  CALM    N/A
$$

WAZ027-191010-
YAKIMA VALLEY

CITY            SKY/WX      TMP DP  RH  WIND    PRES   REMARKS
SUNNYSIDE AP    MOCLDY      31  29  92  CALM    29.84R
YAKIMA AIRPORT  PTCLDY      30  27  88  W7      29.82R
YAKIMA-VAGABOND CLEAR       31  28  88  CALM    29.79R
#DONALD 2NE     N/A         36  18  47  N2      28.67R
#GRANDVIEW      N/A         35  31  85  CALM    29.86R
#MABTON         N/A         36  30  79  CALM    29.83R
#MOXEE 2E       N/A         32  N/A N/A CALM    29.84R
#NACHES 2SW     N/A         33  29  85  W2      29.78F
#OUTLOOK DOT    N/A         36  36  100 CALM    29.80R
#PARKER DOT     N/A         37  29  72  CALM    29.81S
#TERRACE HTS    N/A         34  30  85  CALM    29.81R
#TOPPENISH      N/A         39  33  79  CALM    29.76S
#I82 S UMTANUM RN/A         30  26  85  CALM    N/A
#UNION GAP DOT  N/A         33  31  92  E1      29.85S
#W YAKIMA       N/A         35  31  85  CALM    29.84R
#WHITE SWAN 5E  N/A         41  33  73  SW12    29.84R WCI 34
#WILEY CITY 3W  N/A         31  25  78  CALM    29.77R
#ZILLAH DOT     N/A         39  31  73  CALM    N/A
$$

WAZ028-191010-
LOWER COLUMBIA BASIN...WASHINGTON

CITY            SKY/WX      TMP DP  RH  WIND    PRES   REMARKS
PASCO           MOCLDY      40  33  76  SW7     29.84S
PROSSER AWOS    N/A         32  32  100 CALM    29.87R
RICHLAND AWOS   MOCLDY      40  34  79  CALM    29.85R
#BENTON CITY    N/A         36  32  85  CALM    29.75S
#CONNELL 5N     N/A         35  34  96  SW2     29.83S
#CONNELL 5NW    N/A         35  33  92  S7      29.79R
#ELTOPIA 6NW    N/A         37  35  92  CALM    28.79R
#KAHLOTUS       N/A         38  35  89  W20     29.82S WCI 28
#KENNEWICK 3S   N/A         39  34  82  SW7     29.85S
#PATERSON       N/A         37  35  92  NW7     29.85R
#PROSSER DOT    N/A         36  33  89  CALM    29.85R
#SAGEMOOR 2W    N/A         37  33  85  SW5     29.72R
#TOUCHET 2S     N/A         43  35  73  SW14    29.83S WCI 36
#WEST PASCO     N/A         40  35  82  CALM    29.82R
$$

WAZ029-191010-
FOOTHILLS OF THE BLUES...WASHINGTON

CITY            SKY/WX      TMP DP  RH  WIND    PRES   REMARKS
WALLA WALLA AP  PTCLDY      42  36  79  S10     29.84S
#CLYDE 6NW      N/A         39  35  85  SW9     29.84R
#DELANEY DOT    N/A         42  35  76  SE9     29.85R
#LOWDEN 2SE     N/A         44  36  73  SW5     29.83R
#PLEASANT VIEW 1N/A         36  35  96  SW8     29.87S
#PRESCOTT       N/A         41  37  86  CALM    29.84R
#WHITMAN COLLEGEN/A         42  37  82  S3      29.92R
#WAITSBURG 5S   N/A         38  35  89  S3      29.95R
#WAITSBURG 6SSE N/A         40  33  76  SE3     29.69R
#WAITSBURG 8N   N/A          0  N/A N/A S10     29.56S
#WALLA WALLA 5E N/A         41  37  86  S8      N/A
#WHITMAN MISSIONN/A         43  38  82  CALM    29.88R
$$

WAZ030-191010-
BLUE MOUNTAINS...WASHINGTON

CITY            SKY/WX      TMP DP  RH  WIND    PRES   REMARKS
#DIXIE 5SE      N/A         35  31  85  S8      29.71R
$$

ORZ009-041-WAZ024-191010-
COLUMBIA RIVER GORGE

CITY            SKY/WX      TMP DP  RH  WIND    PRES   REMARKS
HOOD RIVER AP   PTCLDY      34  34  100 CALM    29.89S
THE DALLES AP   PTCLDY      36  34  92  VRB5    29.89S
#ARLINGTON AIRPON/A         38  34  85  W3      29.89R
#ARLINGTON HS   N/A         37  32  82  CALM    29.80R
#CELILO DOT     N/A         39  34  82  SW3     N/A
#LYLE           N/A         37  35  92  CALM    29.91S
#MARYHILL       N/A         35  34  96  N7      N/A
#MURDOCK        N/A         36  35  96  NW2     29.86S
#RUFUS DOT      N/A         40  N/A N/A W8      N/A
#SMITHVILLE     N/A         36  35  96  NW6     29.84R

$$

ORZ510-191010-
NORTH CENTRAL OREGON

CITY            SKY/WX      TMP DP  RH  WIND    PRES   REMARKS
#ANTELOPE       N/A         30  27  88  NE1     29.75R
#CHENOWITH 1W   N/A         35  33  92  W5      N/A
#COW CYN RST AREN/A         33  N/A N/A SW3     N/A
#DUFUR          N/A         31  29  92  CALM    29.84S
#DUFUR 9E       N/A         36  29  75  W7      29.91S
#GRASS VALLEY 1SN/A         33  31  92  S5      29.85R
#KENT DOT       N/A         31  23  72  S6      N/A
#MAUPIN SCHOOL  N/A         36  32  85  CALM    29.92S
#SHANIKO 5WSW   N/A         30  N/A N/A S14     N/A    WCI 19
#SHANIKO 4NW    N/A         30  24  78  SW5     29.80R
#TYGH VALLEY 2NEN/A         36  30  79  CALM    29.87S
#WAPANITIA AIRPON/A         32  27  82  CALM    29.89S
#WASCO DOT      N/A         33  31  92  E1      N/A
#WASCO 5NE      N/A         33  25  72  CALM    29.86S
$$

ORZ511-191010-
CENTRAL OREGON

CITY            SKY/WX      TMP DP  RH  WIND    PRES   REMARKS
BEND AIRPORT    MOCLDY      32  27  82  MISG    29.84F WCI  4
PRINEVILLE AP   CLOUDY      30  28  92  N6      29.84F
REDMOND AIRPORT MOCLDY      29  27  92  CALM    29.83S
#ASHWOOD SCHOOL N/A         33  29  85  S5      29.82S
#BEND 1SW       N/A         31  28  88  W1      N/A
#BEND-AWBREY    N/A         31  27  85  SE5     29.88R
#BEND-KIM LN    N/A         28  26  92  SW2     29.82R
#CULVER         N/A         32  28  85  CALM    29.72S
#CULVER 8W      N/A         32  22  66  CALM    29.85F
#LAKE BILLY CHINN/A         34  N/A N/A S8      29.97R
#MADRAS 4S      N/A         34   5  29  SE8     29.95R
#POWELL BUTTE   N/A         35  19  52  S5      29.78F
#PRINEVILLE     N/A         31  29  92  CALM    29.96S
#PRINEVILLE 3N  N/A         30  28  92  E2      29.86S
#WARM SPRINGS   N/A         32  28  85  CALM    29.72F

$$


ORZ509-191010-
EAST SLOPES OF OREGON CASCADES

CITY            SKY/WX      TMP DP  RH  WIND    PRES   REMARKS
SISTERS AWOS    N/A         28  27  96  CALM    29.81R
#BLUE BOX PASS  N/A         28  N/A N/A SW3     N/A
#CAMP SHERMAN   N/A         26  23  88  CALM    29.96S
#LA PINE DOT    N/A         30  29  96  SW2     N/A
#LA PINE 4NW    N/A         28  25  88  CALM    29.92S
#LAVA BUTTE DOT N/A         28  25  88  CALM    N/A
#SISTERS ODOT   N/A         29  27  92  CALM    N/A
#SISTERS 3N     N/A         29  18  63  CALM    29.88S
#SUNRIVER       N/A         29  27  92  S1      29.89R
#TUMALO 3W      N/A         31  25  78  CALM    29.75R
#WANOGA BUTTE D N/A         21  20  96  W6      N/A

$$

ORZ044-191010-
LOWER COLUMBIA BASIN...OREGON

CITY            SKY/WX      TMP DP  RH  WIND    PRES   REMARKS
HERMISTON       MOCLDY      39  34  82  SW12    29.85R WCI 32
#BOARDMAN SCHOOLN/A         39  36  89  S6      29.86R
#BOARDMAN 8SW   N/A         36  34  92  S3      29.88R
#ECHO 8SW       N/A         36  36  100 SW2     29.88R
#I-84 EX 198 DOTN/A         39  31  73  NE9     N/A
#IONE SCHOOL    N/A         35  20  54  CALM    29.90R
#UMATILLA       N/A         40  33  76  S5      29.79R
$$

ORZ507-191010-
NORTHERN FOOTHILLS OF THE BLUES

CITY            SKY/WX      TMP DP  RH  WIND    PRES   REMARKS
PENDLETON AIRPT MOCLDY      37  33  85  S6      29.83S
#ADAMS 3WNW     N/A         35  33  92  CALM    29.88R
#ATHENA         N/A         38  34  85  CALM    29.90R
#CAYUSE         N/A         39  33  79  CALM    29.87R
#HELIX SCHOOL   N/A         36  34  92  S3      29.88R
#HELIX 3N       N/A         36  33  89  S6      29.85R
#HOLDMAN 6E     N/A         34  34  100 SE3     29.67R
#M-F GROVE ELEM N/A         41  33  73  S1      29.82S
#M-FREEWATER 5SEN/A         41  33  73  S2      29.85R
#PDT AQUATIC CTRN/A         38  37  96  SW1     29.85R
#PDT SUNRIDGE   N/A         38  34  85  S5      29.86S
#PENDLETON 6SE  N/A         39  33  79  SW5     29.83R
#PENDLETON 7NW  N/A         39  32  76  CALM    N/A
#PILOT ROCK 1S  N/A         37  29  72  S1      29.85S
#PILOT ROCK     N/A         36  33  89  CALM    29.87R
#TUTUILLA       N/A         35  32  89  SW3     29.89S
#UMAPINE 2E     N/A         44  37  76  SW3     29.83R

$$

ORZ508-191010-
SOUTHERN FOOTHILLS OF THE BLUES

CITY            SKY/WX      TMP DP  RH  WIND    PRES   REMARKS
LEXINGTON       MOCLDY      36  32  85  SE8     29.88R
#AJAX           N/A         36  24  61  NW7     29.99R
#CONDON 5W      N/A         31  26  81  S7      29.79R
#FOSSIL SCHOOL  N/A         34  30  85  CALM    29.79R
#HEPPNER EOC    N/A         34  29  82  CALM    29.82R
#HEPPNER 4NE    N/A         35  29  78  S1      29.87R
#LEXINGTON 2SE  N/A         35  30  82  S5      29.81R
#MIKKALO        N/A         38  29  70  S1      29.95S
#OLEX 4N        N/A         36  32  85  SW7     29.84R
#RUGGS 5NE      N/A         34  28  78  S6      29.98R
#RUGGS 2SW      N/A         33  27  78  SW7     29.90R

$$

ORZ502-503-191010-
BLUE MOUNTAINS

CITY            SKY/WX      TMP DP  RH  WIND    PRES   REMARKS
MEACHAM         CLOUDY      31  30  96  CALM    29.78F
#BATTLE MTN DOT N/A         30  29  96  CALM    N/A
#GRANITE        N/A         29  25  85  CALM    29.41F
#HARDMAN 10S    N/A         28  26  92  NW2     29.99R
#LADD CYN SMT   N/A         33  31  92  CALM    N/A
#LADD CREEK ODOTN/A         34  28  78  SW1     N/A
#LONG CREEK HS  N/A         31  31  100 CALM    29.83R
#N POWDER DOT   N/A         33  32  96  NE14    N/A    WCI 23
#PIKES PEAK     N/A         33  32  96  S13     27.99S WCI 24
#SUMMERVILLE 5NWN/A         32  31  96  CALM    27.77R
#TOLLGATE       N/A         26  25  96  CALM    29.83R
#TROY SCHOOL    N/A         36  34  92  CALM    29.73S
#UKIAH          N/A         31  30  96  CALM    29.78R
#WESTON 4E      N/A         33  31  92  CALM    29.85R
$$

ORZ505-191010-
JOHN DAY BASIN

CITY            SKY/WX      TMP DP  RH  WIND    PRES   REMARKS
JOHN DAY        LGT SNOW    34  33  96  CALM    29.83R
#ANTELOPE 9ESE  N/A         34  31  89  SW2     N/A
#DAYVILLE SCHOOLN/A         36  33  89  CALM    29.83R
#MITCHELL 8NW   N/A         34  28  78  SW5     29.93R
#MONUMENT HS    N/A         36  34  92  CALM    29.83R
#MT. VERNON 5SE N/A         32  30  92  CALM    29.78R
#SPRAY SCHOOL   N/A         34  N/A N/A CALM    N/A
#WINLOCK        N/A         42  40  93  CALM    29.81R
$$

ORZ506-191010-
OCHOCO AND JOHN DAY HIGHLANDS

CITY            SKY/WX      TMP DP  RH  WIND    PRES   REMARKS
#HORSE RIDGE DO N/A         27  25  92  NE1     N/A
#PAULINA ODOT   N/A         33  29  85  W6      N/A
#PINE MTN OBS   N/A         23  22  96  CALM    N/A
#PRAIRIE CITY   N/A         33  30  89  CALM    29.98R
#SENECA         N/A         31  N/A N/A CALM    N/A
#SENECA 9NW     N/A         30  29  96  CALM    29.85R
$$

ORZ049-191010-
GRANDE RONDE VALLEY

CITY            SKY/WX      TMP DP  RH  WIND    PRES   REMARKS
LA GRANDE       CLOUDY      34  31  89  CALM    29.83S
#COVE SCHOOL    N/A         35  33  92  CALM    29.84S
#COVE 6NW       N/A         35  33  92  CALM    29.85S
#ELGIN 3N       N/A         32  28  85  CALM    29.80S
#ELGIN 1E       N/A         35  30  82  CALM    N/A
#IMBLER SCHOOL  N/A         32  31  96  CALM    29.80S
#ISLAND CITY 4N N/A         42  41  96  CALM    29.90R
#LADD CYN DOT   N/A         35  34  96  CALM    N/A
#UNION 1S       N/A         34  32  92  CALM    29.86S
$$

ORZ050-191010-
WALLOWA COUNTY

CITY            SKY/WX      TMP DP  RH  WIND    PRES   REMARKS
JOSEPH AIRPORT  LGT SNOW    32  32  100 CALM    29.79R
#ENTERPRISE HS  N/A         32  31  96  CALM    29.70S
#IMNAHA SCHOOL  N/A         38  36  92  CALM    29.85R
#IMNAHA 10S     N/A         32  30  92  CALM    29.82R
#JOSEPH         N/A         32  29  89  CALM    30.00R
#JOSEPH 3N      N/A         31  27  85  CALM    29.83F
#JOSEPH 3W      N/A         30  30  100 CALM    29.64R
#LOSTINE        N/A         31  29  92  CALM    29.66F
#LOSTINE 3SE    N/A         31  30  96  CALM    29.83F
#MT HOWARD 8000 N/A         22  20  92  CALM    29.65F
#PROMISE 1S     N/A         32  30  92  CALM    29.94S
#WALLOWA LAKE   N/A         31  30  96  CALM    29.78R
#WALLOWA SCHOOL N/A         31  30  96  CALM    29.80S



$$



USA.gov is the U.S. government's official web portal to all federal, state and local government web resources and services.